Steamboat Springs, CO

6:12 PM MDT on April 27, 2017 (GMT -0600)
Steamboat Springs-Adams

Weather History for KSBS - July, 2013

Change the Weather History Date:

Wednesday, July 24, 2013

  Actual Average Record
Temperature  
Mean Temperature 66 °F -  
Max Temperature 88 °F 81 °F 93 °F (1940)
Min Temperature 45 °F 43 °F 29 °F (1910)
Cooling Degree Days 2    
Growing Degree Days 16 (Base 50)    
Moisture  
Dew Point 31 °F    
Average Humidity 31    
Maximum Humidity 58    
Minimum Humidity 8    
Precipitation  
Precipitation 0.00 in - - ()
Sea Level Pressure  
Sea Level Pressure 30.25 in    
Wind  
Wind Speed 2 mph (South)    
Max Wind Speed 13 mph    
Max Gust Speed 22 mph    
Visibility 10 miles    
Events      
Averages and records for this station are not official NWS values.
T = Trace of Precipitation, MM = Missing Value Source: NWS Daily Summary

Daily Weather History Graph

Daily Weather History Graph

Search for Another Location

Airport or City:

Trip Planner

Search our weather history database for the weather conditions in past years. The results will help you decide how hot, cold, wet, or windy it might be!

Date:

Astronomy

Jul. 24, 2013 Rise Set
Actual Time 5:57 AM MDT 8:29 PM MDT
Civil Twilight 5:26 AM MDT 9:01 PM MDT
Nautical Twilight 4:47 AM MDT 9:40 PM MDT
Astronomical Twilight 4:03 AM MDT 10:23 PM MDT
Moon 9:36 PM MDT (7/24) 8:21 AM MDT (7/24)
Length of Visible Light 15h 35m
Length of Day
14h 32m
Waning Gibbous, 94% of the Moon is Illuminated
Jul 24
Waning Gibbous
Jul 29
Last Quarter
Aug 6
New
Aug 14
First Quarter
Aug 20
Full

Hourly Weather History & Observations

Time (MDT) Temp. Dew Point Humidity Pressure Visibility Wind Dir Wind Speed Gust Speed Precip Events Conditions
12:15 AM 59.2 °F 21.2 °F 23% 30.24 in 10.0 mi Calm Calm - N/A   Clear
12:35 AM 56.3 °F 26.8 °F 32% 30.25 in 10.0 mi Calm Calm - N/A   Clear
12:55 AM 56.3 °F 25.5 °F 31% 30.26 in 10.0 mi Calm Calm - N/A   Clear
1:15 AM 56.3 °F 27.9 °F 34% 30.26 in 10.0 mi Calm Calm - N/A   Clear
1:35 AM 56.7 °F 25.3 °F 30% 30.26 in 10.0 mi Calm Calm - N/A   Clear
1:55 AM 56.5 °F 25.5 °F 30% 30.25 in 10.0 mi Calm Calm - N/A   Clear
2:15 AM 55.4 °F 24.1 °F 30% 30.24 in 10.0 mi Calm Calm - N/A   Clear
2:35 AM 50.5 °F 28.8 °F 43% 30.26 in 10.0 mi Calm Calm - N/A   Clear
2:55 AM 49.3 °F 32.0 °F 51% 30.26 in 10.0 mi Calm Calm - N/A   Clear
3:15 AM 51.1 °F 31.1 °F 46% 30.26 in 10.0 mi Calm Calm - N/A   Clear
3:35 AM 51.4 °F 29.1 °F 42% 30.25 in 10.0 mi Calm Calm - N/A   Clear
3:55 AM 50.4 °F 29.3 °F 44% 30.25 in 10.0 mi Calm Calm - N/A   Clear
4:15 AM 48.7 °F 29.8 °F 48% 30.26 in 10.0 mi SW 4.6 mph - N/A   Clear
4:35 AM 47.7 °F 30.2 °F 51% 30.26 in 10.0 mi East 4.6 mph - N/A   Clear
4:55 AM 48.9 °F 32.7 °F 54% 30.26 in 10.0 mi ESE 3.5 mph - N/A   Clear
5:15 AM 48.6 °F 30.4 °F 50% 30.27 in 10.0 mi WNW 3.5 mph - N/A   Clear
5:35 AM 49.5 °F 30.2 °F 48% 30.27 in 10.0 mi Calm Calm - N/A   Clear
5:55 AM 49.1 °F 31.5 °F 51% 30.28 in 10.0 mi Calm Calm - N/A   Clear
6:15 AM 47.5 °F 31.6 °F 54% 30.28 in 10.0 mi Calm Calm - N/A   Clear
6:35 AM 45.9 °F 32.0 °F 58% 30.28 in 10.0 mi Calm Calm - N/A   Clear
6:55 AM 47.8 °F 33.1 °F 57% 30.29 in 10.0 mi Calm Calm - N/A   Clear
7:15 AM 49.1 °F 32.4 °F 53% 30.29 in 10.0 mi Calm Calm - N/A   Clear
7:35 AM 51.1 °F 32.9 °F 50% 30.29 in 10.0 mi Calm Calm - N/A   Clear
7:55 AM 53.4 °F 30.6 °F 42% 30.29 in 10.0 mi Calm Calm - N/A   Clear
8:15 AM 53.8 °F 35.1 °F 49% 30.29 in 10.0 mi Calm Calm - N/A   Clear
8:35 AM 55.4 °F 33.8 °F 44% 30.30 in 10.0 mi Calm Calm - N/A   Clear
8:55 AM 57.6 °F 33.6 °F 41% 30.30 in 10.0 mi Calm Calm - N/A   Clear
9:15 AM 63.5 °F 30.6 °F 29% 30.29 in 10.0 mi Calm Calm - N/A   Clear
9:35 AM 66.9 °F 31.5 °F 27% 30.29 in 10.0 mi Calm Calm - N/A   Clear
9:55 AM 68.5 °F 30.2 °F 24% 30.28 in 10.0 mi Calm Calm - N/A   Clear
10:15 AM 71.8 °F 29.8 °F 21% 30.28 in 10.0 mi Calm Calm - N/A   Clear
10:35 AM 75.4 °F 31.1 °F 20% 30.27 in 10.0 mi Calm Calm - N/A   Clear
10:55 AM 76.8 °F 31.6 °F 19% 30.26 in 10.0 mi West 4.6 mph - N/A   Clear
11:15 AM 79.5 °F 29.5 °F 16% 30.26 in 10.0 mi Calm Calm - N/A   Clear
11:35 AM 81.7 °F 22.5 °F 11% 30.26 in 10.0 mi Calm Calm - N/A   Clear
11:55 AM 83.5 °F 19.4 °F 9% 30.27 in 10.0 mi South 5.8 mph - N/A   Clear
12:15 PM 81.5 °F 21.4 °F 11% 30.26 in 10.0 mi SW 6.9 mph - N/A   Clear
12:35 PM 84.0 °F 22.6 °F 10% 30.26 in 10.0 mi WSW 6.9 mph - N/A   Clear
12:55 PM 84.4 °F 21.6 °F 10% 30.25 in 10.0 mi South 8.1 mph - N/A   Clear
1:15 PM 83.5 °F 22.5 °F 11% 30.24 in 10.0 mi South 6.9 mph - N/A   Clear
1:35 PM 86.9 °F 21.2 °F 9% 30.23 in 10.0 mi SSE 3.5 mph - N/A   Clear
1:55 PM 87.3 °F 19.2 °F 8% 30.22 in 10.0 mi SW 6.9 mph 17.3 mph N/A   Clear
2:15 PM 86.5 °F 20.8 °F 9% 30.22 in 10.0 mi SW 12.7 mph 17.3 mph N/A   Clear
2:35 PM 88.3 °F 22.6 °F 9% 30.21 in 10.0 mi SSW 10.4 mph - N/A   Clear
2:55 PM 84.6 °F 23.9 °F 11% 30.21 in 10.0 mi South 12.7 mph 20.7 mph N/A   Clear
3:15 PM 85.1 °F 23.4 °F 10% 30.21 in 10.0 mi SSE 12.7 mph 18.4 mph N/A   Mostly Cloudy
3:35 PM 82.8 °F 25.7 °F 12% 30.21 in 10.0 mi SSE 6.9 mph - N/A   Scattered Clouds
3:55 PM 80.4 °F 26.1 °F 14% 30.21 in 10.0 mi SSE 12.7 mph 18.4 mph N/A   Mostly Cloudy
4:15 PM 79.2 °F 30.4 °F 17% 30.22 in 10.0 mi South 9.2 mph 21.9 mph N/A   Mostly Cloudy
4:35 PM 78.6 °F 32.2 °F 18% 30.23 in 10.0 mi South 8.1 mph - N/A   Overcast
4:55 PM 77.2 °F 32.2 °F 19% 30.24 in 10.0 mi SSW 5.8 mph 19.6 mph N/A   Overcast
5:15 PM 75.4 °F 35.1 °F 23% 30.24 in 10.0 mi SSW 6.9 mph 16.1 mph N/A   Overcast
5:35 PM 74.8 °F 33.4 °F 22% 30.24 in 10.0 mi SSE 9.2 mph - N/A   Overcast
5:55 PM 73.6 °F 35.4 °F 25% 30.23 in 10.0 mi NW 4.6 mph - N/A   Overcast
6:15 PM 75.0 °F 34.0 °F 22% 30.22 in 10.0 mi Calm Calm - N/A   Scattered Clouds
6:35 PM 75.2 °F 35.4 °F 24% 30.21 in 10.0 mi ENE 6.9 mph - N/A   Clear
6:55 PM 74.3 °F 37.4 °F 26% 30.21 in 10.0 mi East 3.5 mph - N/A   Clear
7:15 PM 73.6 °F 37.6 °F 27% 30.21 in 10.0 mi Calm Calm - N/A   Clear
7:35 PM 73.4 °F 37.4 °F 27% 30.22 in 10.0 mi Calm Calm - N/A   Clear
7:55 PM 72.5 °F 38.5 °F 29% 30.22 in 10.0 mi Calm Calm - N/A   Scattered Clouds
8:15 PM 70.2 °F 40.1 °F 34% 30.23 in 10.0 mi Calm Calm - N/A   Clear
8:35 PM 68.7 °F 42.1 °F 38% 30.24 in 10.0 mi Calm Calm - N/A   Clear
8:55 PM 68.4 °F 41.5 °F 38% 30.24 in 10.0 mi East 3.5 mph - N/A   Clear
9:15 PM 67.6 °F 43.2 °F 41% 30.24 in 10.0 mi Calm Calm - N/A   Clear
9:35 PM 67.5 °F 43.2 °F 41% 30.24 in 10.0 mi Calm Calm - N/A   Mostly Cloudy
9:55 PM 67.1 °F 43.3 °F 42% 30.25 in 10.0 mi Calm Calm - N/A   Overcast
10:15 PM 66.2 °F 44.1 °F 45% 30.25 in 10.0 mi East 3.5 mph - N/A   Overcast
10:35 PM 66.4 °F 43.2 °F 43% 30.25 in 10.0 mi Calm Calm - N/A   Overcast
10:55 PM 66.2 °F 41.7 °F 41% 30.25 in 10.0 mi SE 4.6 mph - N/A   Mostly Cloudy
11:15 PM 65.1 °F 43.5 °F 45% 30.24 in 10.0 mi Calm Calm - N/A   Mostly Cloudy
11:35 PM 64.2 °F 43.7 °F 47% 30.24 in 10.0 mi Calm Calm - N/A   Mostly Cloudy
11:55 PM 64.6 °F 43.0 °F 45% 30.24 in 10.0 mi Calm Calm - N/A   Overcast